Location: Krakow
(50.0830°N, 19.9170°E)
Time: 07:27:07
(UTC+02:00)

Tiros 1 despin weight - Pass Details

Date: 21 March 2026
Orbit: 555 x 592 km, 48.2° (Epoch: 18 April)

Event Time Altitude Azimuth Distance (km) Brightness Sun altitude
Rises 05:58:49 0° 272° (W) 2,818 ? 2.0°
Reaches altitude 10° 06:01:07 10° 270° (W) 1,913 ? 2.4°
Maximum altitude 06:05:28 64° 189° (S) 647 ? 3.0°
Drops below altitude 10° 06:09:45 10° 108° (ESE) 1,890 ? 3.7°
Sets 06:12:01 0° 105° (ESE) 2,782 ? 4.1°
